Time,TemperatureF,DewpointF,PressureIn,WindDirection,WindDirectionDegrees,WindSpeedMPH,WindSpeedGustMPH,Humidity,HourlyPrecipIn,Conditions,Clouds,dailyrainin,SoftwareType,DateUTC
2013-03-29 00:01:00,33.0,28.0,30.11,NNE,31,1.0,-999.0,80,-99.99,,,-99.99,,2013-03-29 06:01:00,
2013-03-29 00:12:00,33.0,28.0,30.11,NNE,31,1.0,-999.0,80,-99.99,,,-99.99,,2013-03-29 06:12:00,
2013-03-29 00:22:00,33.0,28.0,30.11,NW,326,4.0,-999.0,80,-99.99,,,-99.99,,2013-03-29 06:22:00,
2013-03-29 00:32:00,33.0,27.0,30.11,NW,323,1.0,-999.0,79,-99.99,,,-99.99,,2013-03-29 06:32:00,
2013-03-29 00:41:00,33.0,27.0,30.11,NW,323,1.0,-999.0,79,-99.99,,,-99.99,,2013-03-29 06:41:00,
2013-03-29 00:52:00,33.0,28.0,30.11,NNE,17,2.0,-999.0,80,-99.99,,,-99.99,,2013-03-29 06:52:00,
2013-03-29 01:02:00,33.0,27.0,30.11,NNW,340,1.0,-999.0,79,-99.99,,,-99.99,,2013-03-29 07:02:00,
2013-03-29 01:11:00,33.0,27.0,30.11,NNW,340,1.0,-999.0,79,-99.99,,,-99.99,,2013-03-29 07:11:00,
2013-03-29 01:21:00,33.0,27.0,30.11,NNW,340,1.0,-999.0,79,-99.99,,,-99.99,,2013-03-29 07:21:00,
2013-03-29 01:32:00,32.0,27.0,30.12,North,9,0.0,-999.0,80,-99.99,,,-99.99,,2013-03-29 07:32:00,
2013-03-29 01:41:00,32.0,27.0,30.12,North,9,0.0,-999.0,80,-99.99,,,-99.99,,2013-03-29 07:41:00,
2013-03-29 01:52:00,30.0,25.0,30.12,North,9,0.0,-999.0,81,-99.99,,,-99.99,,2013-03-29 07:52:00,
2013-03-29 02:01:00,30.0,25.0,30.12,NNE,17,1.0,-999.0,82,-99.99,,,-99.99,,2013-03-29 08:01:00,
2013-03-29 02:11:00,30.0,25.0,30.12,NNE,17,1.0,-999.0,82,-99.99,,,-99.99,,2013-03-29 08:11:00,
2013-03-29 02:22:00,29.0,25.0,30.12,NNE,17,0.0,-999.0,83,-99.99,,,-99.99,,2013-03-29 08:22:00,
2013-03-29 02:31:00,28.0,24.0,30.12,NNE,17,0.0,-999.0,86,-99.99,,,-99.99,,2013-03-29 08:31:00,
2013-03-29 02:42:00,28.0,24.0,30.12,NNE,17,0.0,-999.0,86,-99.99,,,-99.99,,2013-03-29 08:42:00,
2013-03-29 02:52:00,28.0,24.0,30.12,NNE,17,0.0,-999.0,85,-99.99,,,-99.99,,2013-03-29 08:52:00,
2013-03-29 03:01:00,28.0,24.0,30.13,NNE,17,0.0,-999.0,86,-99.99,,,-99.99,,2013-03-29 09:01:00,
2013-03-29 03:12:00,28.0,24.0,30.13,NNE,17,0.0,-999.0,86,-99.99,,,-99.99,,2013-03-29 09:12:00,
2013-03-29 03:21:00,28.0,24.0,30.13,NNE,17,0.0,-999.0,85,-99.99,,,-99.99,,2013-03-29 09:21:00,
2013-03-29 03:32:00,27.0,24.0,30.13,NNE,17,1.0,-999.0,87,-99.99,,,-99.99,,2013-03-29 09:32:00,
2013-03-29 03:42:00,27.0,24.0,30.13,NNE,17,1.0,-999.0,87,-99.99,,,-99.99,,2013-03-29 09:42:00,
2013-03-29 03:52:00,27.0,24.0,30.13,NNE,17,2.0,-999.0,87,-99.99,,,-99.99,,2013-03-29 09:52:00,
2013-03-29 04:02:00,27.0,24.0,30.13,NNE,17,0.0,-999.0,87,-99.99,,,-99.99,,2013-03-29 10:02:00,
2013-03-29 04:12:00,27.0,24.0,30.13,NNE,17,0.0,-999.0,87,-99.99,,,-99.99,,2013-03-29 10:12:00,
2013-03-29 04:22:00,27.0,24.0,30.13,NNE,17,0.0,-999.0,87,-99.99,,,-99.99,,2013-03-29 10:22:00,
2013-03-29 04:33:00,27.0,23.0,30.13,NNE,17,0.0,-999.0,86,-99.99,,,-99.99,,2013-03-29 10:33:00,
2013-03-29 04:42:00,27.0,23.0,30.13,NNE,17,0.0,-999.0,86,-99.99,,,-99.99,,2013-03-29 10:42:00,
2013-03-29 04:53:00,27.0,23.0,30.13,NNE,17,1.0,-999.0,86,-99.99,,,-99.99,,2013-03-29 10:53:00,
2013-03-29 05:02:00,26.0,22.0,30.13,NNE,17,1.0,-999.0,86,-99.99,,,-99.99,,2013-03-29 11:02:00,
2013-03-29 05:11:00,26.0,22.0,30.13,NNE,17,1.0,-999.0,86,-99.99,,,-99.99,,2013-03-29 11:11:00,
2013-03-29 05:32:00,25.0,22.0,30.14,NNE,17,0.0,-999.0,87,-99.99,,,-99.99,,2013-03-29 11:32:00,
2013-03-29 05:42:00,25.0,22.0,30.14,NNE,17,0.0,-999.0,87,-99.99,,,-99.99,,2013-03-29 11:42:00,
2013-03-29 05:52:00,26.0,23.0,30.14,NNE,17,0.0,-999.0,88,-99.99,,,-99.99,,2013-03-29 11:52:00,
2013-03-29 06:02:00,26.0,23.0,30.14,NNE,17,1.0,-999.0,87,-99.99,,,-99.99,,2013-03-29 12:02:00,
2013-03-29 06:11:00,26.0,23.0,30.14,NNE,17,1.0,-999.0,87,-99.99,,,-99.99,,2013-03-29 12:11:00,
2013-03-29 06:22:00,26.0,23.0,30.16,NNE,17,0.0,-999.0,89,-99.99,,,-99.99,,2013-03-29 12:22:00,
2013-03-29 06:32:00,26.0,23.0,30.17,NNE,17,0.0,-999.0,88,-99.99,,,-99.99,,2013-03-29 12:32:00,
2013-03-29 06:42:00,26.0,23.0,30.17,NNE,17,0.0,-999.0,88,-99.99,,,-99.99,,2013-03-29 12:42:00,
2013-03-29 06:52:00,27.0,24.0,30.16,NNE,17,1.0,-999.0,87,-99.99,,,-99.99,,2013-03-29 12:52:00,
2013-03-29 07:02:00,27.0,23.0,30.17,NNE,17,0.0,-999.0,86,-99.99,,,-99.99,,2013-03-29 13:02:00,
2013-03-29 07:11:00,27.0,23.0,30.17,NNE,17,0.0,-999.0,86,-99.99,,,-99.99,,2013-03-29 13:11:00,
2013-03-29 07:21:00,27.0,24.0,30.17,NNE,17,1.0,-999.0,87,-99.99,,,-99.99,,2013-03-29 13:21:00,
2013-03-29 07:31:00,28.0,25.0,30.17,NNE,16,1.0,-999.0,87,-99.99,,,-99.99,,2013-03-29 13:31:00,
2013-03-29 07:42:00,28.0,25.0,30.17,NNE,16,1.0,-999.0,87,-99.99,,,-99.99,,2013-03-29 13:42:00,
2013-03-29 07:52:00,28.0,24.0,30.18,NNW,342,3.0,-999.0,85,-99.99,,,-99.99,,2013-03-29 13:52:00,
2013-03-29 08:02:00,29.0,25.0,30.18,NNW,343,3.0,-999.0,84,-99.99,,,-99.99,,2013-03-29 14:02:00,
2013-03-29 08:11:00,29.0,25.0,30.18,NNW,343,3.0,-999.0,84,-99.99,,,-99.99,,2013-03-29 14:11:00,
2013-03-29 08:22:00,30.0,26.0,30.19,NNW,340,3.0,-999.0,85,-99.99,,,-99.99,,2013-03-29 14:22:00,
2013-03-29 08:32:00,32.0,28.0,30.19,NNE,14,2.0,-999.0,85,-99.99,,,-99.99,,2013-03-29 14:32:00,
2013-03-29 08:42:00,32.0,28.0,30.19,NNE,14,2.0,-999.0,85,-99.99,,,-99.99,,2013-03-29 14:42:00,
2013-03-29 08:52:00,32.0,28.0,30.19,NNE,20,4.0,-999.0,84,-99.99,,,-99.99,,2013-03-29 14:52:00,
2013-03-29 09:01:00,33.0,29.0,30.19,NNE,12,3.0,-999.0,84,-99.99,,,-99.99,,2013-03-29 15:01:00,
2013-03-29 09:11:00,33.0,29.0,30.19,NNE,12,3.0,-999.0,84,-99.99,,,-99.99,,2013-03-29 15:11:00,
2013-03-29 09:22:00,34.0,29.0,30.19,NNE,20,2.0,-999.0,82,-99.99,,,-99.99,,2013-03-29 15:22:00,
2013-03-29 09:32:00,35.0,30.0,30.19,NNW,348,2.0,-999.0,81,-99.99,,,-99.99,,2013-03-29 15:32:00,
2013-03-29 09:42:00,35.0,30.0,30.19,NNW,348,2.0,-999.0,81,-99.99,,,-99.99,,2013-03-29 15:42:00,
2013-03-29 09:53:00,36.0,31.0,30.19,NNE,22,4.0,-999.0,81,-99.99,,,-99.99,,2013-03-29 15:53:00,
2013-03-29 10:02:00,36.0,30.0,30.18,North,9,4.0,-999.0,79,-99.99,,,-99.99,,2013-03-29 16:02:00,
2013-03-29 10:12:00,36.0,30.0,30.18,North,9,4.0,-999.0,79,-99.99,,,-99.99,,2013-03-29 16:12:00,
2013-03-29 10:22:00,36.0,30.0,30.18,NNE,22,5.0,-999.0,80,-99.99,,,-99.99,,2013-03-29 16:22:00,
2013-03-29 10:32:00,36.0,30.0,30.18,NNE,20,3.0,-999.0,80,-99.99,,,-99.99,,2013-03-29 16:32:00,
2013-03-29 10:42:00,36.0,30.0,30.18,NNE,20,3.0,-999.0,80,-99.99,,,-99.99,,2013-03-29 16:42:00,
2013-03-29 10:53:00,37.0,31.0,30.18,North,360,2.0,-999.0,79,-99.99,,,-99.99,,2013-03-29 16:53:00,
2013-03-29 11:02:00,39.0,32.0,30.18,NNE,23,3.0,-999.0,75,-99.99,,,-99.99,,2013-03-29 17:02:00,
2013-03-29 11:11:00,39.0,32.0,30.18,NNE,23,3.0,-999.0,75,-99.99,,,-99.99,,2013-03-29 17:11:00,
2013-03-29 11:22:00,40.0,32.0,30.18,NNE,28,1.0,-999.0,73,-99.99,,,-99.99,,2013-03-29 17:22:00,
2013-03-29 11:32:00,42.0,33.0,30.17,ESE,116,1.0,-999.0,69,-99.99,,,-99.99,,2013-03-29 17:32:00,
2013-03-29 11:42:00,42.0,33.0,30.17,ESE,116,1.0,-999.0,69,-99.99,,,-99.99,,2013-03-29 17:42:00,
2013-03-29 11:52:00,43.0,32.0,30.17,SE,140,1.0,-999.0,64,-99.99,,,-99.99,,2013-03-29 17:52:00,
2013-03-29 12:01:00,44.0,32.0,30.17,SE,136,1.0,-999.0,62,-99.99,,,-99.99,,2013-03-29 18:01:00,
2013-03-29 12:12:00,44.0,32.0,30.17,SE,136,1.0,-999.0,62,-99.99,,,-99.99,,2013-03-29 18:12:00,
2013-03-29 12:22:00,44.0,32.0,30.19,SE,131,0.0,-999.0,63,-99.99,,,-99.99,,2013-03-29 18:22:00,
2013-03-29 12:32:00,44.0,32.0,30.18,SE,131,0.0,-999.0,63,-99.99,,,-99.99,,2013-03-29 18:32:00,
2013-03-29 12:42:00,44.0,32.0,30.18,SE,131,0.0,-999.0,63,-99.99,,,-99.99,,2013-03-29 18:42:00,
2013-03-29 12:52:00,43.0,32.0,30.18,NE,38,1.0,-999.0,65,-99.99,,,-99.99,,2013-03-29 18:52:00,
2013-03-29 13:02:00,44.0,33.0,30.17,ESE,110,1.0,-999.0,65,-99.99,,,-99.99,,2013-03-29 19:02:00,
2013-03-29 13:22:00,45.0,33.0,30.16,ESE,118,2.0,-999.0,62,-99.99,,,-99.99,,2013-03-29 19:22:00,
2013-03-29 13:32:00,47.0,31.0,30.16,South,176,6.0,-999.0,54,-99.99,,,-99.99,,2013-03-29 19:32:00,
2013-03-29 13:42:00,47.0,31.0,30.16,South,176,6.0,-999.0,54,-99.99,,,-99.99,,2013-03-29 19:42:00,
2013-03-29 13:52:00,47.0,33.0,30.16,SSE,148,7.0,-999.0,57,-99.99,,,-99.99,,2013-03-29 19:52:00,
2013-03-29 14:02:00,46.0,32.0,30.16,SSE,150,5.0,-999.0,59,-99.99,,,-99.99,,2013-03-29 20:02:00,
2013-03-29 14:11:00,46.0,32.0,30.16,SSE,150,5.0,-999.0,59,-99.99,,,-99.99,,2013-03-29 20:11:00,
2013-03-29 14:21:00,45.0,31.0,30.15,SSE,160,10.0,-999.0,58,-99.99,,,-99.99,,2013-03-29 20:21:00,
2013-03-29 14:32:00,43.0,32.0,30.16,SSE,159,12.0,-999.0,64,-99.99,,,-99.99,,2013-03-29 20:32:00,
2013-03-29 14:41:00,43.0,32.0,30.16,SSE,159,12.0,-999.0,64,-99.99,,,-99.99,,2013-03-29 20:41:00,
2013-03-29 14:52:00,45.0,32.0,30.16,SSE,155,9.0,-999.0,61,-99.99,,,-99.99,,2013-03-29 20:52:00,
2013-03-29 15:01:00,46.0,33.0,30.15,SSE,151,10.0,-999.0,60,-99.99,,,-99.99,,2013-03-29 21:01:00,
2013-03-29 15:11:00,46.0,33.0,30.15,SSE,151,10.0,-999.0,60,-99.99,,,-99.99,,2013-03-29 21:11:00,
2013-03-29 15:21:00,47.0,35.0,30.15,SSE,161,9.0,-999.0,63,-99.99,,,-99.99,,2013-03-29 21:21:00,
2013-03-29 15:32:00,45.0,33.0,30.15,SSE,163,8.0,-999.0,63,-99.99,,,-99.99,,2013-03-29 21:32:00,
2013-03-29 15:42:00,45.0,33.0,30.15,SSE,163,8.0,-999.0,63,-99.99,,,-99.99,,2013-03-29 21:42:00,
2013-03-29 15:53:00,43.0,33.0,30.16,NNE,15,2.0,-999.0,68,-99.99,,,-99.99,,2013-03-29 21:53:00,
2013-03-29 16:02:00,42.0,33.0,30.17,SSE,167,1.0,-999.0,69,-99.99,,,-99.99,,2013-03-29 22:02:00,
2013-03-29 16:12:00,42.0,33.0,30.17,SSE,167,1.0,-999.0,69,-99.99,,,-99.99,,2013-03-29 22:12:00,
2013-03-29 16:22:00,39.0,34.0,30.20,SSW,197,15.0,-999.0,82,-99.99,,,-99.99,,2013-03-29 22:22:00,
2013-03-29 16:32:00,36.0,33.0,30.20,South,171,8.0,-999.0,89,-99.99,,,-99.99,,2013-03-29 22:32:00,
2013-03-29 16:53:00,37.0,34.0,30.19,SSE,148,8.0,-999.0,90,-99.99,,,-99.99,,2013-03-29 22:53:00,
2013-03-29 17:02:00,38.0,35.0,30.19,SE,140,8.0,-999.0,90,-99.99,,,-99.99,,2013-03-29 23:02:00,
2013-03-29 17:11:00,38.0,35.0,30.19,SE,140,8.0,-999.0,90,-99.99,,,-99.99,,2013-03-29 23:11:00,
2013-03-29 17:22:00,37.0,34.0,30.20,South,175,8.0,-999.0,90,-99.99,,,-99.99,,2013-03-29 23:22:00,
2013-03-29 17:31:00,37.0,34.0,30.20,SSE,159,8.0,-999.0,90,-99.99,,,-99.99,,2013-03-29 23:31:00,
2013-03-29 17:41:00,37.0,34.0,30.20,SSE,159,8.0,-999.0,90,-99.99,,,-99.99,,2013-03-29 23:41:00,
2013-03-29 17:52:00,38.0,36.0,30.17,SSE,154,4.0,-999.0,91,-99.99,,,-99.99,,2013-03-29 23:52:00,
2013-03-29 18:02:00,38.0,35.0,30.18,South,178,3.0,-999.0,88,-99.99,,,-99.99,,2013-03-30 00:02:00,
2013-03-29 18:11:00,38.0,35.0,30.18,South,178,3.0,-999.0,88,-99.99,,,-99.99,,2013-03-30 00:11:00,
2013-03-29 18:32:00,38.0,35.0,30.19,SW,228,2.0,-999.0,88,-99.99,,,-99.99,,2013-03-30 00:32:00,
2013-03-29 18:42:00,38.0,35.0,30.19,SW,228,2.0,-999.0,88,-99.99,,,-99.99,,2013-03-30 00:42:00,
2013-03-29 18:52:00,37.0,34.0,30.18,SSW,207,3.0,-999.0,89,-99.99,,,-99.99,,2013-03-30 00:52:00,
2013-03-29 19:02:00,37.0,34.0,30.18,SSW,200,3.0,-999.0,89,-99.99,,,-99.99,,2013-03-30 01:02:00,
2013-03-29 19:11:00,37.0,34.0,30.18,SSW,200,3.0,-999.0,89,-99.99,,,-99.99,,2013-03-30 01:11:00,
2013-03-29 19:22:00,37.0,34.0,30.18,SSW,200,3.0,-999.0,89,-99.99,,,-99.99,,2013-03-30 01:22:00,
2013-03-29 19:32:00,37.0,34.0,30.18,SSW,200,3.0,-999.0,89,-99.99,,,-99.99,,2013-03-30 01:32:00,